This is the latest recevied weather packets stored in our database for station/object AD0YN. If no packets are shown the sender has not sent any weather packets the latest 1 day(s).
| Time | Temp. | Humidity | Pressure | Rain* | Wind** | Luminosity | Snow |
|---|---|---|---|---|---|---|---|
| 1777983329 | 11.11° C | 56% | 1009.4 hPa | 0 mm | 0.45 m/s, 99° | 31 W/m² | - |
| 1777983026 | 11.11° C | 56% | 1009.5 hPa | 0 mm | 1.79 m/s, 136° | 31 W/m² | - |
| 1777982722 | 11.11° C | 57% | 1009.8 hPa | 0 mm | 0.45 m/s, 99° | 24 W/m² | - |
| 1777982417 | 11.11° C | 57% | 1009.4 hPa | 0 mm | 0.89 m/s, 109° | 27 W/m² | - |
| 1777982112 | 11.11° C | 54% | 1009.5 hPa | 0 mm | 1.34 m/s, 108° | 27 W/m² | - |
| 1777981810 | 11.11° C | 56% | 1009.5 hPa | 0 mm | 0.45 m/s, 44° | 25 W/m² | - |
| 1777981507 | 11.11° C | 54% | 1009.5 hPa | 0 mm | 0.45 m/s, 62° | 24 W/m² | - |
| 1777981203 | 11.11° C | 53% | 1009.4 hPa | 0 mm | 1.79 m/s, 51° | 17 W/m² | - |
| 1777980900 | 11.11° C | 54% | 1009.5 hPa | 0 mm | 2.24 m/s, 87° | 12 W/m² | - |
| 1777980590 | 11.11° C | 57% | 1009.5 hPa | 0 mm | 0.89 m/s, 47° | 8 W/m² | - |
| 1777980287 | 11.11° C | 57% | 1009.7 hPa | 0 mm | 0.89 m/s, 34° | 3 W/m² | - |
| 1777979984 | 11.11° C | 58% | 1009.9 hPa | 0 mm | 0.45 m/s, 69° | 2 W/m² | - |
| 1777979678 | 11.11° C | 59% | 1009.6 hPa | 0 mm | 1.79 m/s, 19° | 1 W/m² | - |
| 1777979374 | 11.11° C | 59% | 1009.7 hPa | 0 mm | 1.34 m/s, 78° | 1 W/m² | - |
| 1777979071 | 11.11° C | 60% | 1009.8 hPa | 0 mm | 0.45 m/s, 27° | 0 W/m² | - |
| 1777978768 | 11.11° C | 58% | 1009.5 hPa | 0 mm | 0.89 m/s, 64° | 0 W/m² | - |
| 1777978465 | 11.11° C | 59% | 1009.7 hPa | 0 mm | 0.89 m/s, 41° | 0 W/m² | - |
| 1777978161 | 11.11° C | 59% | 1009.9 hPa | 0 mm | 0.45 m/s, 53° | 0 W/m² | - |
| 1777977858 | 11.11° C | 61% | 1009.8 hPa | 0 mm | 0.89 m/s, 83° | 0 W/m² | - |
| 1777977554 | 11.11° C | 60% | 1009.7 hPa | 0 mm | 1.34 m/s, 55° | 0 W/m² | - |
| 1777977252 | 11.11° C | 61% | 1009.7 hPa | 0 mm | 0.45 m/s, 66° | 0 W/m² | - |
| 1777976949 | 11.11° C | 60% | 1009.7 hPa | 0 mm | 0.89 m/s, 96° | 0 W/m² | - |
| 1777976646 | 11.11° C | 60% | 1009.5 hPa | 0 mm | 1.34 m/s, 45° | 0 W/m² | - |
| 1777976342 | 11.11° C | 59% | 1009.5 hPa | 0 mm | 1.34 m/s, 0° | 0 W/m² | - |
| 1777976037 | 11.11° C | 60% | 1009.5 hPa | 0 mm | 0.89 m/s, 82° | 0 W/m² | - |
* Rain latest hour (hover to see other rain measurements)
** Current wind speed in m/s (hover to see current wind gust speed)